Weather History for Jackson, MI

Change the Weather History Date:

Sunday, November 4, 2012

  Actual Average Record
Temperature  
Mean Temperature 29 °F 44 °F  
Max Temperature 37 °F 53 °F 75 °F (1978)
Min Temperature 21 °F 36 °F 19 °F (1991)
Degree Days  
Heating Degree Days 36 21  
Month to date heating degree days 116 81  
Since 1 July heating degree days 764 729  
Cooling Degree Days 0 0  
Month to date cooling degree days 0 0  
Year to date cooling degree days 873 592  
Moisture  
Dew Point 23 °F    
Average Humidity 76    
Maximum Humidity 92    
Minimum Humidity 59    
Precipitation  
Precipitation 0.00 in 0.09 in 0.92 in (1959)
Month to date precipitation T 0.35  
Year to date precipitation 22.87 27.38  
Sea Level Pressure  
Sea Level Pressure 30.20 in    
Wind  
Wind Speed 2 mph (North)    
Max Wind Speed 9 mph    
Max Gust Speed 13 mph    
Visibility 10 miles    
Events      
T = Trace of Precipitation, MM = Missing Value Source: NWS Daily Summary

Daily Weather History Graph

Daily Weather History Graph

Search for Another Location

Airport:

Trip Planner

Search our weather history database for the weather conditions in past years. The results will help you decide how hot, cold, wet, or windy it might be!

Date:

Astronomy

Nov. 04, 2012 Rise Set
Actual Time 7:15 AM EST 5:26 PM EST
Civil Twilight 6:45 AM EST 5:56 PM EST
Nautical Twilight 6:12 AM EST 6:29 PM EST
Astronomical Twilight 5:39 AM EST 7:02 PM EST
Moon 10:03 PM EST (11/4) 11:59 AM EST (11/4)
Length of Visible Light 11h 10m
Length of Day
10h 11m
Waning Gibbous, 72% of the Moon is Illuminated
Nov 4
Waning Gibbous
Nov 6
Last Quarter
Nov 13
New
Nov 20
First Quarter
Nov 28
Full

Hourly Weather History & Observations

Time (EST) Temp. Windchill Dew Point Humidity Pressure Visibility Wind Dir Wind Speed Gust Speed Precip Events Conditions
12:56 AM 28.0 °F - 25.0 °F 88% 30.21 in 10.0 mi Calm Calm - N/A   Mostly Cloudy
1:56 AM 27.0 °F - 24.1 °F 89% 30.21 in 10.0 mi Calm Calm - N/A   Mostly Cloudy
1:07 AM 26.6 °F - 21.2 °F 80% 30.18 in 10.0 mi Calm Calm - N/A   Mostly Cloudy
1:18 AM 26.6 °F - 23.0 °F 86% 30.17 in 10.0 mi Calm Calm - N/A   Overcast
1:56 AM 27.0 °F - 24.1 °F 89% 30.20 in 10.0 mi Calm Calm - N/A   Mostly Cloudy
2:56 AM 26.1 °F - 21.9 °F 84% 30.19 in 10.0 mi Calm Calm - N/A   Mostly Cloudy
3:54 AM 26.6 °F - 23.0 °F 86% 30.17 in 10.0 mi Calm Calm - N/A   Mostly Cloudy
3:56 AM 26.1 °F - 23.0 °F 88% 30.20 in 10.0 mi Calm Calm - N/A   Mostly Cloudy
4:56 AM 27.0 °F - 25.0 °F 92% 30.22 in 10.0 mi Calm Calm - N/A   Overcast
5:56 AM 30.0 °F - 26.1 °F 85% 30.22 in 10.0 mi Calm Calm - N/A   Overcast
6:56 AM 30.9 °F - 26.1 °F 82% 30.22 in 10.0 mi Calm Calm - N/A   Overcast
7:56 AM 32.0 °F 28.7 °F 26.1 °F 79% 30.23 in 10.0 mi North 3.5 mph - N/A   Overcast
8:56 AM 32.0 °F 27.5 °F 26.1 °F 79% 30.24 in 10.0 mi NNE 4.6 mph - N/A   Overcast
9:56 AM 34.0 °F 28.8 °F 25.0 °F 70% 30.23 in 10.0 mi NNE 5.8 mph - N/A   Overcast
10:56 AM 34.0 °F 26.6 °F 24.1 °F 67% 30.22 in 10.0 mi NNE 9.2 mph - N/A   Overcast
11:56 AM 35.1 °F 30.1 °F 24.1 °F 64% 30.22 in 10.0 mi North 5.8 mph - N/A   Overcast
12:56 PM 36.0 °F 31.1 °F 24.1 °F 62% 30.21 in 10.0 mi NNE 5.8 mph - N/A   Overcast
1:56 PM 36.0 °F 31.1 °F 24.1 °F 62% 30.20 in 10.0 mi North 5.8 mph - N/A   Overcast
2:40 PM 35.6 °F 31.7 °F 23.0 °F 60% 30.17 in 10.0 mi NNW 4.6 mph - N/A   Scattered Clouds
2:56 PM 36.0 °F 31.1 °F 23.0 °F 59% 30.20 in 10.0 mi NNW 5.8 mph - N/A   Partly Cloudy
3:17 PM 37.4 °F 34.9 °F 23.0 °F 56% 30.16 in 10.0 mi Variable 3.5 mph - N/A   Mostly Cloudy
3:46 PM 35.6 °F 30.7 °F 23.0 °F 60% 30.16 in 10.0 mi North 5.8 mph - N/A   Scattered Clouds
3:56 PM 36.0 °F 32.1 °F 23.0 °F 59% 30.20 in 10.0 mi North 4.6 mph - N/A   Partly Cloudy
4:56 PM 34.0 °F 29.8 °F 23.0 °F 64% 30.20 in 10.0 mi NNW 4.6 mph - N/A   Clear
5:56 PM 30.9 °F - 23.0 °F 72% 30.20 in 10.0 mi Calm Calm - N/A   Partly Cloudy
6:56 PM 28.0 °F - 21.9 °F 78% 30.21 in 10.0 mi Calm Calm - N/A   Clear
7:56 PM 27.0 °F - 21.9 °F 81% 30.21 in 10.0 mi Calm Calm - N/A   Clear
8:56 PM 25.0 °F - 21.0 °F 85% 30.21 in 10.0 mi Calm Calm - N/A   Clear
9:56 PM 25.0 °F - 19.9 °F 81% 30.21 in 10.0 mi Calm Calm - N/A   Clear
10:56 PM 21.9 °F - 19.0 °F 89% 30.21 in 9.0 mi Calm Calm - N/A   Clear